When you browse on this site, cookies collect data to enhance your experience and personalize the content and advertising you see.
Visit our Privacy Policy to learn more. By continuing to use the site, you agree to this use of cookies and data.
  • In Spain
  • List of Countries
  • For 7 days
  • Water Temperature
  • Weather Map
  • Weather Widgets
  • user-avatar
    Login

    Hourly Weather Trowbridge

    Today, 19 January, Sunday

    Time Temperature Precipitation Wind Pressure Humidity
    00:00 0°C° 0 mm 3 mps 774 mmHg 89%
    01:00 +1°C° 0 mm 2 mps 774 mmHg 90%
    02:00 +1°C° 0 mm 2 mps 775 mmHg 90%
    03:00 +1°C° 0 mm 2 mps 775 mmHg 91%
    04:00 -1°C° 0 mm 2 mps 776 mmHg 92%
    05:00 -1°C° 0 mm 2 mps 776 mmHg 92%
    06:00 -1°C° 0 mm 2 mps 777 mmHg 93%
    07:00 +1°C° 0 mm 1 mps 778 mmHg 93%
    08:00 +2°C° 0 mm 1 mps 778 mmHg 92%
    09:00 +2°C° 0 mm 1 mps 779 mmHg 91%
    10:00 +3°C° 0 mm 1 mps 779 mmHg 86%
    11:00 +5°C° 0 mm 1 mps 780 mmHg 81%
    12:00 +5°C° 0 mm 2 mps 780 mmHg 76%
    13:00 +5°C° 0 mm 2 mps 780 mmHg 77%
    14:00 +7°C° 0 mm 1 mps 780 mmHg 78%
    15:00 +7°C° 0 mm 1 mps 781 mmHg 79%
    16:00 +5°C° 0 mm 1 mps 781 mmHg 81%
    17:00 +4°C° 0 mm 1 mps 781 mmHg 84%
    18:00 +3°C° 0 mm 1 mps 781 mmHg 86%
    19:00 +2°C° 0 mm 1 mps 781 mmHg 85%
    20:00 +1°C° 0 mm 0 mps 782 mmHg 84%
    21:00 +1°C° 0 mm 0 mps 782 mmHg 83%
    22:00 +1°C° 0 mm 0 mps 782 mmHg 82%
    23:00 +1°C° 0 mm 0 mps 782 mmHg 80%

    Tomorrow, 20 January, Monday

    Time Temperature Precipitation Wind Pressure Humidity
    00:00 +1°C° 0 mm 0 mps 783 mmHg 78%
    01:00 +1°C° 0 mm 0 mps 782 mmHg 77%
    02:00 +1°C° 0 mm 0 mps 782 mmHg 76%
    03:00 +2°C° 0 mm 1 mps 782 mmHg 74%
    04:00 +2°C° 0 mm 1 mps 782 mmHg 74%
    05:00 +2°C° 0 mm 1 mps 782 mmHg 74%
    06:00 +2°C° 0 mm 1 mps 782 mmHg 74%
    07:00 +2°C° 0 mm 1 mps 782 mmHg 74%
    08:00 +3°C° 0 mm 1 mps 782 mmHg 75%
    09:00 +3°C° 0 mm 1 mps 782 mmHg 75%
    10:00 +4°C° 0 mm 1 mps 782 mmHg 71%
    11:00 +6°C° 0 mm 1 mps 782 mmHg 67%
    12:00 +7°C° 0 mm 1 mps 781 mmHg 63%
    13:00 +7°C° 0 mm 1 mps 781 mmHg 66%
    14:00 +7°C° 0 mm 1 mps 781 mmHg 69%
    15:00 +7°C° 0 mm 1 mps 780 mmHg 72%
    16:00 +6°C° 0 mm 1 mps 780 mmHg 75%
    17:00 +3°C° 0 mm 0 mps 780 mmHg 78%
    18:00 +2°C° 0 mm 0 mps 779 mmHg 81%
    19:00 +2°C° 0 mm 0 mps 779 mmHg 81%
    20:00 +2°C° 0 mm 0 mps 779 mmHg 80%
    21:00 +1°C° 0 mm 0 mps 779 mmHg 79%
    22:00 +1°C° 0 mm 0 mps 779 mmHg 79%
    23:00 +1°C° 0 mm 0 mps 779 mmHg 79%

    Day after tomorrow, 21 January, Tuesday

    Time Temperature Precipitation Wind Pressure Humidity
    00:00 +1°C° 0 mm 0 mps 778 mmHg 79%
    01:00 +1°C° 0 mm 0 mps 778 mmHg 78%
    02:00 +1°C° 0 mm 0 mps 778 mmHg 77%
    03:00 +1°C° 0 mm 0 mps 778 mmHg 77%
    04:00 +1°C° 0 mm 0 mps 777 mmHg 77%
    05:00 +1°C° 0 mm 0 mps 777 mmHg 77%
    06:00 +1°C° 0 mm 0 mps 777 mmHg 77%
    07:00 +1°C° 0 mm 0 mps 777 mmHg 76%
    08:00 +1°C° 0 mm 0 mps 777 mmHg 75%
    09:00 +1°C° 0 mm 0 mps 777 mmHg 74%
    10:00 +3°C° 0 mm 0 mps 777 mmHg 70%
    11:00 +4°C° 0 mm 0 mps 777 mmHg 66%
    12:00 +5°C° 0 mm 0 mps 777 mmHg 62%
    13:00 +5°C° 0 mm 0 mps 777 mmHg 65%
    14:00 +6°C° 0 mm 0 mps 776 mmHg 67%
    15:00 +6°C° 0 mm 0 mps 776 mmHg 70%
    16:00 +4°C° 0 mm 0 mps 776 mmHg 74%
    17:00 +3°C° 0 mm 0 mps 776 mmHg 78%
    18:00 +1°C° 0 mm 0 mps 775 mmHg 82%
    19:00 +1°C° 0 mm 0 mps 775 mmHg 82%
    20:00 +1°C° 0 mm 0 mps 776 mmHg 82%
    21:00 +1°C° 0 mm 0 mps 776 mmHg 82%
    22:00 +1°C° 0 mm 0 mps 776 mmHg 82%
    23:00 +2°C° 0 mm 1 mps 775 mmHg 82%

    22 January, Wednesday

    Time Temperature Precipitation Wind Pressure Humidity
    00:00 +2°C° 0 mm 1 mps 775 mmHg 83%
    01:00 +3°C° 0 mm 1 mps 775 mmHg 84%
    02:00 +3°C° 0 mm 1 mps 775 mmHg 86%
    03:00 +3°C° 0 mm 1 mps 775 mmHg 88%
    04:00 +3°C° 0 mm 1 mps 774 mmHg 90%
    05:00 +3°C° 0 mm 1 mps 774 mmHg 92%
    06:00 +3°C° 0 mm 1 mps 774 mmHg 94%
    07:00 +3°C° 0 mm 2 mps 774 mmHg 95%
    08:00 +3°C° 0 mm 2 mps 774 mmHg 96%
    09:00 +4°C° 0 mm 2 mps 774 mmHg 96%
    10:00 +5°C° 0 mm 2 mps 774 mmHg 94%
    11:00 +5°C° 0 mm 3 mps 774 mmHg 93%
    12:00 +7°C° 0 mm 3 mps 774 mmHg 91%
    13:00 +7°C° 0 mm 3 mps 774 mmHg 91%
    14:00 +7°C° 0 mm 3 mps 774 mmHg 92%
    15:00 +7°C° 0 mm 3 mps 773 mmHg 93%
    16:00 +7°C° 0 mm 3 mps 773 mmHg 94%
    17:00 +6°C° 0 mm 2 mps 773 mmHg 96%
    18:00 +6°C° 0 mm 2 mps 773 mmHg 97%
    19:00 +5°C° 0 mm 2 mps 773 mmHg 97%
    20:00 +5°C° 0 mm 2 mps 773 mmHg 97%
    21:00 +5°C° 0 mm 2 mps 773 mmHg 97%
    22:00 +5°C° 0 mm 2 mps 772 mmHg 97%
    23:00 +5°C° 0 mm 2 mps 772 mmHg 97%

    23 January, Thursday

    Time Temperature Precipitation Wind Pressure Humidity
    00:00 +6°C° 0 mm 1 mps 772 mmHg 97%
    01:00 +6°C° 0 mm 1 mps 772 mmHg 97%
    02:00 +5°C° 0 mm 2 mps 772 mmHg 97%
    03:00 +5°C° 0 mm 2 mps 771 mmHg 97%
    04:00 +6°C° 0 mm 1 mps 771 mmHg 97%
    05:00 +6°C° 0 mm 1 mps 771 mmHg 97%
    06:00 +6°C° 0 mm 1 mps 770 mmHg 97%
    07:00 +6°C° 0 mm 1 mps 770 mmHg 97%
    08:00 +6°C° 0 mm 1 mps 770 mmHg 97%
    09:00 +6°C° 0 mm 1 mps 770 mmHg 97%
    10:00 +7°C° 0 mm 1 mps 770 mmHg 94%
    11:00 +8°C° 0 mm 1 mps 770 mmHg 92%
    12:00 +8°C° 0 mm 1 mps 769 mmHg 89%
    13:00 +8°C° 0 mm 1 mps 769 mmHg 89%
    14:00 +8°C° 0 mm 1 mps 768 mmHg 88%
    15:00 +8°C° 0 mm 2 mps 768 mmHg 88%
    16:00 +8°C° 0 mm 1 mps 768 mmHg 89%
    17:00 +8°C° 0 mm 1 mps 768 mmHg 90%
    18:00 +8°C° 0 mm 1 mps 768 mmHg 91%
    19:00 +8°C° 0 mm 1 mps 767 mmHg 91%
    20:00 +8°C° 0 mm 1 mps 767 mmHg 91%
    21:00 +8°C° 0 mm 1 mps 767 mmHg 92%
    22:00 +7°C° 0 mm 1 mps 767 mmHg 92%
    23:00 +7°C° 0 mm 1 mps 767 mmHg 92%

    24 January, Friday

    Time Temperature Precipitation Wind Pressure Humidity
    00:00 +7°C° 0 mm 1 mps 767 mmHg 92%
    01:00 +7°C° 0 mm 1 mps 766 mmHg 93%
    02:00 +7°C° 0 mm 1 mps 766 mmHg 93%
    03:00 +7°C° 0 mm 1 mps 766 mmHg 93%
    04:00 +7°C° 0 mm 1 mps 766 mmHg 94%
    05:00 +6°C° 0 mm 0 mps 765 mmHg 94%
    06:00 +6°C° 0 mm 0 mps 765 mmHg 95%
    07:00 +6°C° 0 mm 0 mps 765 mmHg 95%
    08:00 +5°C° 0 mm 0 mps 765 mmHg 95%
    09:00 +5°C° 0 mm 0 mps 765 mmHg 95%
    10:00 +7°C° 0 mm 1 mps 765 mmHg 92%
    11:00 +7°C° 0 mm 1 mps 765 mmHg 90%
    12:00 +8°C° 0 mm 1 mps 765 mmHg 87%
    13:00 +8°C° 0 mm 1 mps 764 mmHg 85%
    14:00 +8°C° 0 mm 1 mps 764 mmHg 83%
    15:00 +8°C° 0 mm 1 mps 763 mmHg 81%
    16:00 +7°C° 0 mm 1 mps 763 mmHg 82%
    17:00 +7°C° 0 mm 1 mps 763 mmHg 82%
    18:00 +6°C° 0 mm 1 mps 763 mmHg 83%
    19:00 +6°C° 0 mm 1 mps 762 mmHg 83%
    20:00 +5°C° 0 mm 2 mps 762 mmHg 84%
    21:00 +4°C° 0 mm 2 mps 762 mmHg 84%
    22:00 +4°C° 0 mm 2 mps 762 mmHg 84%
    23:00 +4°C° 0 mm 2 mps 761 mmHg 83%
    Show more